| time (UTC) | temp F | wind direction | speed MPH | gust MPH | rain 1hr in | rain 24hr in | rain mn in | humidity % | barometer mb |
| 20260901110543 | 92 | 106 | 6.0 | 20.0 | 0.00 | 0.00 | 0.00 | 34 | 1015.7 |
| 20260901105535 | 92 | 118 | 6.0 | 23.0 | 0.00 | 0.00 | 0.00 | 33 | 1015.8 |
| 20260901104543 | 92 | 110 | 4.0 | 13.0 | 0.00 | 0.00 | 0.00 | 33 | 1015.8 |
| 20260901103535 | 92 | 48 | 4.0 | 13.0 | 0.00 | 0.00 | 0.00 | 33 | 1015.8 |
| 20260901102543 | 91 | 51 | 5.0 | 13.0 | 0.00 | 0.00 | 0.00 | 33 | 1015.8 |
| 20260901101515 | 91 | 129 | 5.0 | 15.0 | 0.00 | 0.00 | 0.00 | 34 | 1015.8 |
| 20260901100523 | 91 | 118 | 6.0 | 20.0 | 0.00 | 0.00 | 0.00 | 34 | 1015.9 |
| 20260901095515 | 91 | 123 | 7.0 | 17.0 | 0.00 | 0.00 | 0.00 | 34 | 1015.9 |
| 20260901094523 | 91 | 108 | 6.0 | 15.0 | 0.00 | 0.00 | 0.00 | 34 | 1016.0 |
| 20260901093515 | 91 | 123 | 6.0 | 15.0 | 0.00 | 0.00 | 0.00 | 35 | 1016.1 |
| 20260901092523 | 91 | 101 | 3.0 | 13.0 | 0.00 | 0.00 | 0.00 | 35 | 1016.1 |
| 20260901091515 | 91 | 132 | 10.0 | 20.0 | 0.00 | 0.00 | 0.00 | 36 | 1016.0 |
| 20260901090523 | 90 | 125 | 8.0 | 15.0 | 0.00 | 0.00 | 0.00 | 36 | 1016.0 |
| 20260901085515 | 90 | 27 | 4.0 | 13.0 | 0.00 | 0.00 | 0.00 | 36 | 1016.0 |
| 20260901084523 | 89 | 98 | 5.0 | 17.0 | 0.00 | 0.00 | 0.00 | 37 | 1016.0 |
| 20260901083515 | 89 | 24 | 6.0 | 17.0 | 0.00 | 0.00 | 0.00 | 37 | 1016.0 |
| 20260901082543 | 89 | 58 | 5.0 | 10.0 | 0.00 | 0.00 | 0.00 | 38 | 1015.9 |
| 20260901081515 | 88 | 86 | 4.0 | 13.0 | 0.00 | 0.00 | 0.00 | 38 | 1015.9 |
| 20260901080523 | 88 | 119 | 5.0 | 15.0 | 0.00 | 0.00 | 0.00 | 38 | 1015.8 |
| 20260901075515 | 87 | 132 | 6.0 | 13.0 | 0.00 | 0.00 | 0.00 | 40 | 1015.9 |
| 20260901074523 | 86 | 128 | 7.0 | 17.0 | 0.00 | 0.00 | 0.00 | 41 | 1015.8 |
| 20260901073515 | 86 | 132 | 7.0 | 13.0 | 0.00 | 0.00 | 0.00 | 43 | 1015.7 |
| 20260901072523 | 86 | 120 | 6.0 | 15.0 | 0.00 | 0.00 | 0.00 | 44 | 1015.7 |
| 20260901071515 | 86 | 124 | 7.0 | 15.0 | 0.00 | 0.00 | 0.00 | 44 | 1015.7 |
| 20260901070523 | 86 | 117 | 4.0 | 13.0 | 0.00 | 0.00 | 0.00 | 44 | 1015.7 |
| 20260901065515 | 86 | 130 | 4.0 | 13.0 | 0.00 | 0.00 | 0.00 | 45 | 1015.6 |
| 20260901064523 | 87 | 130 | 3.0 | 8.0 | 0.00 | 0.00 | 0.00 | 45 | 1015.7 |
| 20260901063515 | 87 | 142 | 1.0 | 5.0 | 0.00 | 0.00 | 0.00 | 44 | 1015.7 |
| 20260901062543 | 88 | 121 | 1.0 | 5.0 | 0.00 | 0.00 | 0.00 | 44 | 1015.7 |
| 20260901061515 | 87 | 0.0 | 0.0 | 0.00 | 0.00 | 0.00 | 43 | 1015.8 | |
| 20260901060523 | 84 | 0.0 | 0.0 | 0.00 | 0.00 | 0.00 | 42 | 1015.8 | |
| 20260901055515 | 81 | 0.0 | 0.0 | 0.00 | 0.00 | 0.00 | 43 | 1015.7 | |
| 20260901054523 | 80 | 0.0 | 0.0 | 0.00 | 0.00 | 0.00 | 48 | 1015.7 | |
| 20260901053515 | 80 | 13 | 1.0 | 5.0 | 0.00 | 0.00 | 0.00 | 51 | 1015.6 |
| 20260901052523 | 80 | 20 | 1.0 | 2.0 | 0.00 | 0.00 | 0.00 | 52 | 1015.6 |
| 20260901051535 | 79 | 0.0 | 0.0 | 0.00 | 0.00 | 0.00 | 49 | 1015.7 | |
| 20260901050523 | 79 | 0.0 | 0.0 | 0.00 | 0.00 | 0.00 | 50 | 1015.7 | |
| 20260901045515 | 77 | 0.0 | 0.0 | 0.00 | 0.00 | 0.00 | 49 | 1015.4 | |
| 20260901044523 | 76 | 0.0 | 0.0 | 0.00 | 0.00 | 0.00 | 50 | 1015.5 | |
| 20260901043515 | 75 | 0.0 | 0.0 | 0.00 | 0.00 | 0.00 | 52 | 1015.3 | |
| 20260901042523 | 75 | 0.0 | 0.0 | 0.00 | 0.00 | 0.00 | 53 | 1015.3 | |
| 20260901041515 | 75 | 0.0 | 0.0 | 0.00 | 0.00 | 0.00 | 53 | 1015.3 | |
| 20260901040523 | 75 | 0.0 | 0.0 | 0.00 | 0.00 | 0.00 | 53 | 1015.2 | |
| 20260901035515 | 75 | 0.0 | 0.0 | 0.00 | 0.00 | 0.00 | 52 | 1015.1 | |
| 20260901034019 | 75 | 0.0 | 0.0 | 0.00 | 0.00 | 0.00 | 52 | 1015.0 | |
| 20260901033047 | 75 | 0.0 | 0.0 | 0.00 | 0.00 | 0.00 | 52 | 1014.8 | |
| 20260901032019 | 76 | 0.0 | 0.0 | 0.00 | 0.00 | 0.00 | 52 | 1014.9 | |
| 20260901031027 | 76 | 0.0 | 0.0 | 0.00 | 0.00 | 0.00 | 51 | 1014.9 | |
| 20260901030019 | 76 | 12 | 0.0 | 5.0 | 0.00 | 0.00 | 0.00 | 51 | 1015.0 |
| 20260901025027 | 76 | 0.0 | 0.0 | 0.00 | 0.00 | 0.00 | 50 | 1015.0 | |
| 20260901024039 | 76 | 0.0 | 0.0 | 0.00 | 0.00 | 0.00 | 50 | 1014.9 | |
| 20260901023047 | 76 | 0.0 | 0.0 | 0.00 | 0.00 | 0.00 | 50 | 1015.0 | |
| 20260901022039 | 77 | 0.0 | 0.0 | 0.00 | 0.00 | 0.00 | 50 | 1014.9 | |
| 20260901021027 | 78 | 0.0 | 0.0 | 0.00 | 0.00 | 0.00 | 49 | 1015.0 | |
| 20260901020019 | 78 | 0.0 | 0.0 | 0.00 | 0.00 | 0.00 | 48 | 1015.1 | |
| 20260901015027 | 78 | 7 | 0.0 | 2.0 | 0.00 | 0.00 | 0.00 | 47 | 1015.0 |
| 20260901014019 | 78 | 124 | 1.0 | 5.0 | 0.00 | 0.00 | 0.00 | 46 | 1015.0 |
| 20260901013027 | 78 | 120 | 0.0 | 2.0 | 0.00 | 0.00 | 0.00 | 47 | 1015.0 |
| 20260901012039 | 78 | 0.0 | 0.0 | 0.00 | 0.00 | 0.00 | 47 | 1015.0 | |
| 20260901011027 | 77 | 125 | 0.0 | 2.0 | 0.00 | 0.00 | 0.00 | 47 | 1015.0 |
| 20260901010019 | 77 | 120 | 0.0 | 2.0 | 0.00 | 0.00 | 0.00 | 47 | 1015.0 |
| 20260901005026 | 77 | 121 | 1.0 | 5.0 | 0.00 | 0.00 | 0.00 | 47 | 1015.1 |
| 20260901004018 | 77 | 131 | 0.0 | 2.0 | 0.00 | 0.00 | 0.00 | 47 | 1015.1 |
| 20260901003026 | 77 | 134 | 0.0 | 2.0 | 0.00 | 0.00 | 0.00 | 48 | 1015.1 |
| 20260901002019 | 77 | 93 | 0.0 | 2.0 | 0.00 | 0.00 | 0.00 | 47 | 1015.1 |
| 20260901001027 | 77 | 130 | 0.0 | 2.0 | 0.00 | 0.00 | 0.00 | 47 | 1015.2 |
| 20260901000038 | 78 | 4 | 1.0 | 5.0 | 0.00 | 0.00 | 0.00 | 47 | 1015.3 |
| 20260831235026 | 80 | 9 | 3.0 | 8.0 | 0.00 | 0.00 | 0.00 | 47 | 1015.5 |
| 20260831234018 | 80 | 132 | 0.0 | 2.0 | 0.00 | 0.00 | 0.00 | 43 | 1015.3 |
| 20260831233026 | 80 | 129 | 2.0 | 8.0 | 0.00 | 0.00 | 0.00 | 43 | 1015.4 |
| 20260831232019 | 80 | 132 | 2.0 | 8.0 | 0.00 | 0.00 | 0.00 | 43 | 1015.4 |
| 20260831231027 | 80 | 124 | 3.0 | 8.0 | 0.00 | 0.00 | 0.00 | 43 | 1015.6 |
| 20260831230018 | 80 | 124 | 2.0 | 5.0 | 0.00 | 0.00 | 0.00 | 43 | 1015.7 |
| 20260831225027 | 80 | 120 | 0.0 | 5.0 | 0.00 | 0.00 | 0.00 | 44 | 1015.7 |
| 20260831224018 | 80 | 19 | 2.0 | 5.0 | 0.00 | 0.00 | 0.00 | 43 | 1015.7 |
| 20260831223026 | 80 | 130 | 2.0 | 8.0 | 0.00 | 0.00 | 0.00 | 42 | 1015.7 |
| 20260831222018 | 80 | 126 | 2.0 | 5.0 | 0.00 | 0.00 | 0.00 | 42 | 1015.7 |
| 20260831221026 | 80 | 125 | 2.0 | 10.0 | 0.00 | 0.00 | 0.00 | 43 | 1016.0 |
| 20260831220018 | 80 | 5 | 1.0 | 5.0 | 0.00 | 0.00 | 0.00 | 43 | 1016.0 |
| 20260831215027 | 80 | 120 | 3.0 | 8.0 | 0.00 | 0.00 | 0.00 | 42 | 1016.1 |
| 20260831214019 | 80 | 134 | 1.0 | 8.0 | 0.00 | 0.00 | 0.00 | 42 | 1015.9 |
| 20260831213027 | 80 | 127 | 2.0 | 5.0 | 0.00 | 0.00 | 0.00 | 43 | 1016.0 |
| 20260831212100 | 81 | 140 | 0.0 | 2.0 | 0.00 | 0.00 | 0.00 | 43 | 1016.1 |
| 20260831211047 | 81 | 356 | 0.0 | 2.0 | 0.00 | 0.00 | 0.00 | 42 | 1016.0 |
| 20260831210019 | 81 | 137 | 0.0 | 2.0 | 0.00 | 0.00 | 0.00 | 42 | 1016.0 |
| 20260831205027 | 81 | 118 | 1.0 | 5.0 | 0.00 | 0.00 | 0.00 | 41 | 1016.0 |
| 20260831204039 | 81 | 137 | 2.0 | 10.0 | 0.00 | 0.00 | 0.00 | 41 | 1016.0 |
| 20260831203048 | 81 | 42 | 1.0 | 5.0 | 0.00 | 0.00 | 0.00 | 42 | 1016.0 |
| 20260831202019 | 81 | 14 | 0.0 | 5.0 | 0.00 | 0.00 | 0.00 | 43 | 1015.9 |
| 20260831201027 | 81 | 346 | 1.0 | 8.0 | 0.00 | 0.00 | 0.00 | 43 | 1015.9 |
| 20260831200019 | 81 | 24 | 0.0 | 5.0 | 0.00 | 0.00 | 0.00 | 43 | 1016.0 |
| 20260831195027 | 81 | 20 | 2.0 | 5.0 | 0.00 | 0.00 | 0.00 | 43 | 1015.8 |
| 20260831194019 | 81 | 10 | 1.0 | 8.0 | 0.00 | 0.00 | 0.00 | 43 | 1015.8 |
| 20260831193028 | 81 | 0.0 | 0.0 | 0.00 | 0.00 | 0.00 | 44 | 1015.9 | |
| 20260831192040 | 81 | 24 | 0.0 | 2.0 | 0.00 | 0.00 | 0.00 | 43 | 1015.6 |
| 20260831191028 | 81 | 116 | 1.0 | 8.0 | 0.00 | 0.00 | 0.00 | 43 | 1015.6 |
| 20260831190020 | 82 | 140 | 0.0 | 5.0 | 0.00 | 0.00 | 0.00 | 43 | 1015.6 |
| 20260831185027 | 82 | 129 | 1.0 | 5.0 | 0.00 | 0.00 | 0.00 | 42 | 1015.5 |
| 20260831184020 | 82 | 130 | 2.0 | 5.0 | 0.00 | 0.00 | 0.00 | 42 | 1015.3 |
| 20260831183027 | 82 | 103 | 0.0 | 5.0 | 0.00 | 0.00 | 0.00 | 41 | 1015.3 |
| 20260831182039 | 83 | 141 | 1.0 | 8.0 | 0.00 | 0.00 | 0.00 | 41 | 1015.3 |
| 20260831181048 | 83 | 128 | 1.0 | 5.0 | 0.00 | 0.00 | 0.00 | 41 | 1015.1 |
| 20260831180020 | 83 | 124 | 0.0 | 2.0 | 0.00 | 0.00 | 0.00 | 40 | 1015.2 |
| 20260831175027 | 84 | 98 | 1.0 | 8.0 | 0.00 | 0.00 | 0.00 | 40 | 1015.0 |
| 20260831174019 | 84 | 21 | 1.0 | 8.0 | 0.00 | 0.00 | 0.00 | 40 | 1014.9 |
| 20260831173027 | 84 | 108 | 1.0 | 5.0 | 0.00 | 0.00 | 0.00 | 40 | 1014.9 |
| 20260831172019 | 84 | 119 | 2.0 | 10.0 | 0.00 | 0.00 | 0.00 | 39 | 1014.8 |
| 20260831171027 | 85 | 128 | 4.0 | 15.0 | 0.00 | 0.00 | 0.00 | 39 | 1014.9 |
| 20260831170019 | 85 | 126 | 3.0 | 13.0 | 0.00 | 0.00 | 0.00 | 39 | 1014.9 |
| 20260831165027 | 86 | 131 | 5.0 | 13.0 | 0.00 | 0.00 | 0.00 | 39 | 1014.9 |
| 20260831164019 | 86 | 123 | 4.0 | 13.0 | 0.00 | 0.00 | 0.00 | 39 | 1014.9 |
| 20260831163027 | 87 | 131 | 4.0 | 10.0 | 0.00 | 0.00 | 0.00 | 38 | 1014.9 |
| 20260831162019 | 87 | 113 | 1.0 | 5.0 | 0.00 | 0.00 | 0.00 | 38 | 1014.8 |
| 20260831161027 | 88 | 127 | 5.0 | 15.0 | 0.00 | 0.00 | 0.00 | 38 | 1015.0 |
| 20260831160019 | 89 | 125 | 3.0 | 8.0 | 0.00 | 0.00 | 0.00 | 38 | 1015.0 |
| 20260831155027 | 89 | 123 | 2.0 | 10.0 | 0.00 | 0.00 | 0.00 | 37 | 1015.0 |
| 20260831154039 | 89 | 145 | 0.0 | 5.0 | 0.00 | 0.00 | 0.00 | 37 | 1015.0 |
| 20260831153027 | 90 | 39 | 4.0 | 13.0 | 0.00 | 0.00 | 0.00 | 37 | 1014.9 |
| 20260831152019 | 90 | 135 | 5.0 | 13.0 | 0.00 | 0.00 | 0.00 | 37 | 1015.0 |
| 20260831151048 | 91 | 194 | 2.0 | 8.0 | 0.00 | 0.00 | 0.00 | 36 | 1014.8 |
| 20260831150019 | 91 | 37 | 2.0 | 10.0 | 0.00 | 0.00 | 0.00 | 36 | 1014.7 |
| 20260831145027 | 91 | 123 | 3.0 | 10.0 | 0.00 | 0.00 | 0.00 | 36 | 1014.9 |
| 20260831144019 | 91 | 146 | 2.0 | 13.0 | 0.00 | 0.00 | 0.00 | 35 | 1015.0 |
| 20260831143027 | 91 | 132 | 3.0 | 10.0 | 0.00 | 0.00 | 0.00 | 36 | 1015.1 |
| 20260831142019 | 92 | 141 | 6.0 | 13.0 | 0.00 | 0.00 | 0.00 | 37 | 1015.3 |
| 20260831141027 | 92 | 151 | 4.0 | 10.0 | 0.00 | 0.00 | 0.00 | 36 | 1015.3 |
| 20260831140019 | 92 | 139 | 2.0 | 8.0 | 0.00 | 0.00 | 0.00 | 36 | 1015.1 |
| 20260831135027 | 92 | 152 | 5.0 | 13.0 | 0.00 | 0.00 | 0.00 | 36 | 1015.1 |
| 20260831134019 | 92 | 116 | 4.0 | 13.0 | 0.00 | 0.00 | 0.00 | 37 | 1015.3 |
| 20260831133027 | 92 | 147 | 3.0 | 13.0 | 0.00 | 0.00 | 0.00 | 36 | 1015.1 |
| 20260831132020 | 92 | 138 | 4.0 | 13.0 | 0.00 | 0.00 | 0.00 | 37 | 1015.1 |
| 20260831131027 | 91 | 154 | 6.0 | 15.0 | 0.00 | 0.00 | 0.00 | 38 | 1015.1 |
| 20260831130019 | 91 | 123 | 5.0 | 15.0 | 0.00 | 0.00 | 0.00 | 38 | 1015.1 |
| 20260831125027 | 91 | 108 | 4.0 | 13.0 | 0.00 | 0.00 | 0.00 | 37 | 1015.2 |
| 20260831124039 | 92 | 129 | 7.0 | 15.0 | 0.00 | 0.00 | 0.00 | 38 | 1015.4 |
| 20260831123027 | 92 | 130 | 6.0 | 15.0 | 0.00 | 0.00 | 0.00 | 38 | 1015.4 |
| 20260831122019 | 92 | 134 | 5.0 | 15.0 | 0.00 | 0.00 | 0.00 | 37 | 1015.5 |
| 20260831121027 | 92 | 144 | 5.0 | 15.0 | 0.00 | 0.00 | 0.00 | 37 | 1015.7 |
| 20260831120019 | 91 | 126 | 6.0 | 13.0 | 0.00 | 0.00 | 0.00 | 38 | 1015.7 |
| 20260831115027 | 92 | 124 | 6.0 | 13.0 | 0.00 | 0.00 | 0.00 | 38 | 1015.8 |
| 20260831114019 | 92 | 135 | 5.0 | 15.0 | 0.00 | 0.00 | 0.00 | 38 | 1015.8 |
| 20260831113027 | 92 | 30 | 3.0 | 13.0 | 0.00 | 0.00 | 0.00 | 37 | 1016.0 |
| 20260831112019 | 91 | 124 | 4.0 | 13.0 | 0.00 | 0.00 | 0.00 | 38 | 1016.0 |
| 20260831111047 | 91 | 113 | 1.0 | 8.0 | 0.00 | 0.00 | 0.00 | 38 | 1016.1 |